* Astronomy

Members Login
Post Info TOPIC: SL-6 rocket body re-entry


L

Posts: 131433
Date:
RE: SL-6 rocket body re-entry
Permalink  
 


Update:
The SL-6 rocket body is re-entered the Earths atmosphere on the 14th December, 2010 @ 19:37 GMT ± 1 minute.

Inclination: 62.78°
Revolution Number:   1191
Predicted  Location:   57° N, 322° E


__________________


L

Posts: 131433
Date:
Permalink  
 

Update:
The SL-6 rocket body is predicted to re-enter the Earths atmosphere on the 14th December, 2010 @ 18:58 GMT ± 8 hours.

TLE Data
SL-6 RB
1 37172U 10049C 10348.19638451 .05644806 87421-5 53894-3 0 1508
2 37172 062.7749 287.3780 0026748 117.7496 242.9861 16.36610912 11812

Period:       88.56 minutes
Inclination: 62.78°
Apogee:     232 km
Perigee:     174 km
Revolution Number:   1190
Predicted  Location:   61.1° S, 166.7° E

__________________


L

Posts: 131433
Date:
Permalink  
 

Update:
The SL-6 rocket body is predicted to re-enter the Earths atmosphere on the 15th December, 2010 @ 00:01 GMT ± 24 hours.

Period:       88.85 minutes
Inclination: 62.78°
Apogee:     254 km
Perigee:     181 km
Revolution Number:   1194
Predicted  Location:   49.6° N, 238.3° E

__________________


L

Posts: 131433
Date:
Permalink  
 

Update:
The SL-6 rocket body is predicted to re-enter the Earths atmosphere on the 14th December, 2010 @ 23:44 GMT ± 48 hours.

Period:       88.85 minutes
Inclination: 62.78°
Apogee:     254 km
Perigee:     181 km
Revolution Number:   1193
Predicted  Location:   9° S, 200.9° E

__________________


L

Posts: 131433
Date:
Permalink  
 

Update:
The SL-6 rocket body is predicted to re-enter the Earths atmosphere on the 14th December, 2010 @ 22:59 GMT ± 48 hours.

TLE Data
SL-6 RB

1 37172U 10049C 10345.05967294 .01221790 84576-5 47062-3 0 1440

2 37172 062.7848 300.1789 0056967 117.0295 243.6770 16.19264789 11300

Period:       89.02 minutes
Inclination: 62.78°
Apogee:     266 km
Perigee:     186 km
Size:          4.99
Revolution Number:   1193
Predicted  Location:   8.5° N, 32.4° E

__________________


L

Posts: 131433
Date:
Permalink  
 

Update:
The SL-6 rocket body is predicted to re-enter the Earths atmosphere on the 7th December, 2010 @ -- GMT ± -- hours.

TLE Data
SL-6 RB
1 37172U 10049C 10335.39679571 .00497660 81810-5 43761-3 0 1141
2 37172 062.7863 338.7385 0092610 115.1423 032.1648 16.03851656 9741

Period:       89.78 minutes
Inclination: 62.79°
Apogee:     325 km
Perigee:     202 km
Size:          9.48
Revolution Number:   -
Predicted  Location:    -

__________________


L

Posts: 131433
Date:
Permalink  
 

Update:
The SL-6 rocket body is predicted to re-enter the Earths atmosphere on the 4th December, 2010 @ -- GMT ± -- hours.

Period:       90.2
Inclination: 62.79
Apogee:     360
Perigee:     208
Size:          9.48
Revolution Number:   -
Predicted  Location:    -

__________________


L

Posts: 131433
Date:
Permalink  
 

A SL-6 rocket body that was launched by a Molniya-M carrier rocket on the 30th September, 2010, from the Plesetsk launch site for the Kosmos 2469 mission is predicted to re-enter the Earths atmosphere on the 30th November, 2010 @ -- GMT ± -- hours.

TLE Data
SL-6 RB
1 37172U 10049C 10322.66730956 .00417298 79700-5 56666-3 0 806
2 37172 062.7886 028.6308 0125699 115.1514 246.2731 15.92327387 7713

Period:       90.44
Inclination: 62.79
Apogee:     380
Perigee:     212
Size:          9.48
Revolution Number:   -
Predicted  Location:    -



__________________
Page 1 of 1  sorted by
Quick Reply

Please log in to post quick replies.



Create your own FREE Forum
Report Abuse
Powered by ActiveBoard